Weather History for KSUX - June, 2014

Change the Weather History Date:

Sunday, June 22, 2014

  Actual Average Record
Temperature  
Mean Temperature 72 °F 72 °F  
Max Temperature 80 °F 84 °F 99 °F (1988)
Min Temperature 64 °F 61 °F 44 °F (1905)
Degree Days  
Heating Degree Days 0 0  
Month to date heating degree days 20 24  
Since 1 June heating degree days 20 24  
Since 1 July heating degree days 7246 6858  
Cooling Degree Days 7 8  
Month to date cooling degree days 128 120  
Year to date cooling degree days 249 184  
Since 1 June cooling degree days 128 120  
Growing Degree Days 22 (Base 50)    
Moisture  
Dew Point 65 °F    
Average Humidity 78    
Maximum Humidity 93    
Minimum Humidity 62    
Precipitation  
Precipitation 1.15 in 0.13 in 1.19 in (1969)
Month to date precipitation 13.25 2.89  
Year to date precipitation 18.50 12.87  
Snow  
Snow 0.00 in 0.00 in 0.00 in ()
Month to date snowfall 0.0 0.0  
Since 1 June snowfall 0.0 0.0  
Since 1 July snowfall 23.8 34.8  
Snow Depth 0.00 in    
Sea Level Pressure  
Sea Level Pressure 29.85 in    
Wind  
Wind Speed 9 mph (NE)    
Max Wind Speed 38 mph    
Max Gust Speed 48 mph    
Visibility 8 miles    
Events Rain , Thunderstorm    
T = Trace of Precipitation, MM = Missing Value Source: NWS Daily Summary

Daily Weather History Graph

Daily Weather History Graph

Search for Another Location

Airport or City:

Trip Planner

Search our weather history database for the weather conditions in past years. The results will help you decide how hot, cold, wet, or windy it might be!

Date:

Astronomy

Jun. 22, 2014 Rise Set
Actual Time 5:48 AM CDT 9:06 PM CDT
Civil Twilight 5:14 AM CDT 9:41 PM CDT
Nautical Twilight 4:28 AM CDT 10:26 PM CDT
Astronomical Twilight 3:33 AM CDT 11:21 PM CDT
Moon 2:42 AM CDT (6/22) 4:44 PM CDT (6/22)
Length of Visible Light 16h 26m
Length of Day
15h 17m
Waning Crescent, 20% of the Moon is Illuminated
Jun 22
Waning Crescent
Jun 27
New
Jul 5
First Quarter
Jul 12
Full
Jul 18
Last Quarter

Hourly Weather History & Observations

Time (CDT) Temp. Heat Index Dew Point Humidity Pressure Visibility Wind Dir Wind Speed Gust Speed Precip Events Conditions
12:52 AM 73.9 °F - 70.0 °F 87% 29.83 in 10.0 mi ESE 5.8 mph - N/A   Mostly Cloudy
1:15 AM 73.0 °F - 70.0 °F 90% 29.83 in 10.0 mi ESE 6.9 mph - N/A Thunderstorm Partly Cloudy
1:30 AM 73.9 °F - 70.0 °F 87% 29.83 in 10.0 mi East 5.8 mph - N/A   Clear
1:52 AM 73.0 °F - 70.0 °F 90% 29.78 in 10.0 mi SE 6.9 mph - N/A   Partly Cloudy
2:52 AM 71.1 °F - 62.1 °F 73% 29.83 in 10.0 mi North 17.3 mph 34.5 mph N/A   Overcast
2:55 AM 71.1 °F - 62.1 °F 73% 29.86 in 10.0 mi North 16.1 mph 34.5 mph N/A   Overcast
2:59 AM 70.0 °F - 62.1 °F 76% 29.86 in 10.0 mi North 38.0 mph 48.3 mph N/A Thunderstorm Unknown
3:17 AM 68.0 °F - 62.1 °F 81% 29.86 in 10.0 mi NE 16.1 mph 43.7 mph N/A Thunderstorm Overcast
3:45 AM 66.9 °F - 62.1 °F 84% 29.85 in 10.0 mi NNE 18.4 mph 33.4 mph 0.00 in Rain , Thunderstorm Light Thunderstorms and Rain
3:52 AM 66.0 °F - 63.0 °F 90% 29.81 in 4.0 mi NE 23.0 mph - 0.03 in Rain , Thunderstorm Heavy Thunderstorms and Rain
4:01 AM 64.9 °F - 62.1 °F 90% 29.83 in 2.5 mi NE 19.6 mph 32.2 mph 0.15 in Rain , Thunderstorm Thunderstorms and Rain
4:08 AM 64.9 °F - 62.1 °F 90% 29.83 in 10.0 mi ENE 16.1 mph 23.0 mph 0.16 in Rain , Thunderstorm Light Thunderstorms and Rain
4:15 AM 66.0 °F - 62.1 °F 87% 29.84 in 10.0 mi NE 12.7 mph 23.0 mph 0.16 in Thunderstorm Overcast
4:32 AM 64.9 °F - 62.1 °F 90% 29.84 in 2.5 mi ENE 17.3 mph - 0.31 in Rain , Thunderstorm Rain
4:34 AM 64.9 °F - 62.1 °F 90% 29.84 in 3.0 mi East 17.3 mph 24.2 mph 0.31 in Rain , Thunderstorm Light Rain
4:52 AM 66.0 °F - 62.1 °F 87% 29.82 in 10.0 mi East 13.8 mph - 0.31 in Rain , Thunderstorm Light Rain
5:00 AM 66.0 °F - 62.1 °F 87% 29.83 in 4.0 mi East 13.8 mph - 0.00 in Rain , Thunderstorm Light Thunderstorms and Rain
5:39 AM 66.0 °F - 62.1 °F 87% 29.83 in 7.0 mi ENE 16.1 mph - 0.07 in Rain Rain
5:52 AM 66.2 °F - 62.6 °F 88% 29.83 in 9.0 mi East 10.4 mph - N/A Rain Light Rain
5:59 AM 66.0 °F - 62.1 °F 87% 29.84 in 7.0 mi East 10.4 mph 20.7 mph 0.01 in Rain , Thunderstorm Rain
6:09 AM 64.9 °F - 62.1 °F 90% 29.91 in 8.0 mi Variable 5.8 mph 18.4 mph 0.02 in Rain , Thunderstorm Light Thunderstorms and Rain
6:17 AM 64.9 °F - 62.1 °F 90% 29.90 in 1.8 mi NE 10.4 mph - 0.17 in Rain , Thunderstorm Heavy Thunderstorms and Rain
6:23 AM 64.9 °F - 62.1 °F 90% 29.88 in 2.0 mi ENE 11.5 mph - 0.26 in Rain , Thunderstorm Heavy Thunderstorms and Rain
6:32 AM 64.9 °F - 62.1 °F 90% 29.90 in 4.0 mi Variable 3.5 mph - 0.32 in Rain , Thunderstorm Thunderstorms and Rain
6:42 AM 64.9 °F - 62.1 °F 90% 29.90 in 4.0 mi SSE 11.5 mph - 0.35 in Rain , Thunderstorm Rain
6:52 AM 64.9 °F - 63.0 °F 93% 29.88 in 7.0 mi ESE 10.4 mph - 0.36 in Rain , Thunderstorm Light Rain
7:05 AM 64.0 °F - 63.0 °F 96% 29.91 in 6.0 mi SW 5.8 mph - 0.03 in Rain Rain
7:16 AM 64.9 °F - 63.0 °F 93% 29.90 in 6.0 mi SE 3.5 mph - 0.07 in Rain , Thunderstorm Rain
7:38 AM 64.9 °F - 63.0 °F 93% 29.90 in 4.0 mi NE 6.9 mph - 0.14 in Rain Rain
7:52 AM 64.9 °F - 63.0 °F 93% 29.89 in 6.0 mi SE 8.1 mph - 0.18 in Rain Rain
8:52 AM 66.0 °F - 64.0 °F 93% 29.87 in 6.0 mi ESE 9.2 mph - 0.14 in Rain Rain
9:52 AM 66.9 °F - 64.9 °F 93% 29.78 in 10.0 mi SSE 5.8 mph - 0.03 in   Mostly Cloudy
10:52 AM 68.0 °F - 66.0 °F 93% 29.82 in 10.0 mi NW 9.2 mph - 0.00 in Rain Light Rain
11:52 AM 69.1 °F - 66.0 °F 90% 29.85 in 10.0 mi WSW 8.1 mph - 0.01 in   Overcast
12:44 PM 71.1 °F - 66.9 °F 87% 29.89 in 10.0 mi West 5.8 mph - N/A   Overcast
12:52 PM 71.1 °F - 66.9 °F 87% 29.87 in 10.0 mi West 6.9 mph - N/A   Overcast
1:14 PM 71.1 °F - 66.0 °F 84% 29.90 in 10.0 mi NW 12.7 mph - N/A   Overcast
1:52 PM 71.1 °F - 64.9 °F 81% 29.88 in 10.0 mi WNW 8.1 mph - N/A   Overcast
2:52 PM 75.9 °F - 66.9 °F 74% 29.86 in 10.0 mi NNW 6.9 mph - N/A   Mostly Cloudy
3:52 PM 78.1 °F - 66.9 °F 68% 29.85 in 10.0 mi NW 11.5 mph - N/A   Scattered Clouds
4:52 PM 79.0 °F - 66.9 °F 66% 29.84 in 10.0 mi NNW 12.7 mph - N/A   Partly Cloudy
5:52 PM 80.1 °F 82.7 °F 68.0 °F 67% 29.83 in 10.0 mi NNW 10.4 mph - N/A   Partly Cloudy
6:52 PM 78.1 °F - 66.9 °F 68% 29.81 in 10.0 mi NNE 6.9 mph - N/A   Partly Cloudy
7:52 PM 79.0 °F - 64.9 °F 62% 29.80 in 10.0 mi NNE 6.9 mph - N/A   Partly Cloudy
8:52 PM 75.9 °F - 64.0 °F 67% 29.83 in 10.0 mi NNE 4.6 mph - N/A   Clear
9:52 PM 70.0 °F - 66.0 °F 87% 29.85 in 10.0 mi Calm Calm - N/A   Clear
10:52 PM 69.1 °F - 66.0 °F 90% 29.86 in 10.0 mi WNW 3.5 mph - N/A   Clear
11:52 PM 66.9 °F - 64.9 °F 93% 29.88 in 10.0 mi WNW 3.5 mph - N/A   Clear